Year,Month,Day,Hour,Minute,Value (Times are PST for temperature in C)
2019,03,19,00,00,5.70
2019,03,19,00,01,5.70
2019,03,19,00,02,5.70
2019,03,19,00,03,5.70
2019,03,19,00,04,5.60
2019,03,19,00,05,5.70
2019,03,19,00,06,5.60
2019,03,19,00,07,5.60
2019,03,19,00,08,5.60
2019,03,19,00,09,5.60
2019,03,19,00,10,5.60
2019,03,19,00,11,5.60
2019,03,19,00,12,5.60
2019,03,19,00,13,5.50
2019,03,19,00,14,5.50
2019,03,19,00,15,5.50
2019,03,19,00,16,5.50
2019,03,19,00,17,5.40
2019,03,19,00,18,5.40
2019,03,19,00,19,5.40
2019,03,19,00,20,5.40
2019,03,19,00,21,5.40
2019,03,19,00,22,5.40
2019,03,19,00,23,5.40
2019,03,19,00,24,5.40
2019,03,19,00,25,5.30
2019,03,19,00,26,5.30
2019,03,19,00,27,5.30
2019,03,19,00,28,5.30
2019,03,19,00,29,5.30
2019,03,19,00,30,5.20
2019,03,19,00,31,5.20
2019,03,19,00,32,5.20
2019,03,19,00,33,5.20
2019,03,19,00,34,5.20
2019,03,19,00,35,5.20
2019,03,19,00,36,5.20
2019,03,19,00,37,5.20
2019,03,19,00,38,5.20
2019,03,19,00,39,5.20
2019,03,19,00,40,5.20
2019,03,19,00,41,5.20
2019,03,19,00,42,5.10
2019,03,19,00,43,5.10
2019,03,19,00,44,5.10
2019,03,19,00,45,5.10
2019,03,19,00,46,5.20
2019,03,19,00,47,5.10
2019,03,19,00,48,5.10
2019,03,19,00,49,5.20
2019,03,19,00,50,5.20
2019,03,19,00,51,5.10
2019,03,19,00,52,5.10
2019,03,19,00,53,5.10
2019,03,19,00,54,5.10
2019,03,19,00,55,5.10
2019,03,19,00,56,5.10
2019,03,19,00,57,5.10
2019,03,19,00,58,5.10
2019,03,19,00,59,5.10
2019,03,19,01,00,5.10
2019,03,19,01,01,5.10
2019,03,19,01,02,5.10
2019,03,19,01,03,5.10
2019,03,19,01,04,5.10
2019,03,19,01,05,5.00
2019,03,19,01,06,5.00
2019,03,19,01,07,5.00
2019,03,19,01,08,5.00
2019,03,19,01,09,5.00
2019,03,19,01,10,5.00
2019,03,19,01,11,5.00
2019,03,19,01,12,5.00
2019,03,19,01,13,4.90
2019,03,19,01,14,4.90
2019,03,19,01,15,5.00
2019,03,19,01,16,5.00
2019,03,19,01,17,5.00
2019,03,19,01,18,5.00
2019,03,19,01,19,5.00
2019,03,19,01,20,5.00
2019,03,19,01,21,5.00
2019,03,19,01,22,5.00
2019,03,19,01,23,4.90
2019,03,19,01,24,4.90
2019,03,19,01,25,4.90
2019,03,19,01,26,4.90
2019,03,19,01,27,4.90
2019,03,19,01,28,4.90
2019,03,19,01,29,4.90
2019,03,19,01,30,4.80
2019,03,19,01,31,4.80
2019,03,19,01,32,4.80
2019,03,19,01,33,4.80
2019,03,19,01,34,4.80
2019,03,19,01,35,4.80
2019,03,19,01,36,4.80
2019,03,19,01,37,4.70
2019,03,19,01,38,4.70
2019,03,19,01,39,4.70
2019,03,19,01,40,4.70
2019,03,19,01,41,4.70
2019,03,19,01,42,4.60
2019,03,19,01,43,4.60
2019,03,19,01,44,4.60
2019,03,19,01,45,4.60
2019,03,19,01,46,4.60
2019,03,19,01,47,4.60
2019,03,19,01,48,4.60
2019,03,19,01,49,4.60
2019,03,19,01,50,4.60
2019,03,19,01,51,4.60
2019,03,19,01,52,4.60
2019,03,19,01,53,4.60
2019,03,19,01,54,4.60
2019,03,19,01,55,4.60
2019,03,19,01,56,4.60
2019,03,19,01,57,4.60
2019,03,19,01,58,4.60
2019,03,19,01,59,4.60
2019,03,19,02,00,4.60
2019,03,19,02,01,4.50
2019,03,19,02,02,4.50
2019,03,19,02,03,4.50
2019,03,19,02,04,4.40
2019,03,19,02,05,4.40
2019,03,19,02,06,4.40
2019,03,19,02,07,4.40
2019,03,19,02,08,4.40
2019,03,19,02,09,4.40
2019,03,19,02,10,4.40
2019,03,19,02,11,4.40
2019,03,19,02,12,4.40
2019,03,19,02,13,4.40
2019,03,19,02,14,4.30
2019,03,19,02,15,4.30
2019,03,19,02,16,4.30
2019,03,19,02,17,4.30
2019,03,19,02,18,4.30
2019,03,19,02,19,4.30
2019,03,19,02,20,4.30
2019,03,19,02,21,4.30
2019,03,19,02,22,4.20
2019,03,19,02,23,4.20
2019,03,19,02,24,4.20
2019,03,19,02,25,4.20
2019,03,19,02,26,4.20
2019,03,19,02,27,4.20
2019,03,19,02,28,4.20
2019,03,19,02,29,4.20
2019,03,19,02,30,4.10
2019,03,19,02,31,4.10
2019,03,19,02,32,4.10
2019,03,19,02,33,4.10
2019,03,19,02,34,4.10
2019,03,19,02,35,4.00
2019,03,19,02,36,4.00
2019,03,19,02,37,4.00
2019,03,19,02,38,4.00
2019,03,19,02,39,4.00
2019,03,19,02,40,4.00
2019,03,19,02,41,4.00
2019,03,19,02,42,4.00
2019,03,19,02,43,4.00
2019,03,19,02,44,4.00
2019,03,19,02,45,4.00
2019,03,19,02,46,4.00
2019,03,19,02,47,4.00
2019,03,19,02,48,4.00
2019,03,19,02,49,4.00
2019,03,19,02,50,4.00
2019,03,19,02,51,4.00
2019,03,19,02,52,4.00
2019,03,19,02,53,4.00
2019,03,19,02,54,4.00
2019,03,19,02,55,4.00
2019,03,19,02,56,4.00
2019,03,19,02,57,4.00
2019,03,19,02,58,4.00
2019,03,19,02,59,4.00
2019,03,19,03,00,4.00
2019,03,19,03,01,4.10
2019,03,19,03,02,4.10
2019,03,19,03,03,4.10
2019,03,19,03,04,4.10
2019,03,19,03,05,4.10
2019,03,19,03,06,4.10
2019,03,19,03,07,4.00
2019,03,19,03,08,4.00
2019,03,19,03,09,3.90
2019,03,19,03,10,3.90
2019,03,19,03,11,3.90
2019,03,19,03,12,3.90
2019,03,19,03,13,3.80
2019,03,19,03,14,3.80
2019,03,19,03,15,3.80
2019,03,19,03,16,3.80
2019,03,19,03,17,3.80
2019,03,19,03,18,3.80
2019,03,19,03,19,3.80
2019,03,19,03,20,3.80
2019,03,19,03,21,3.90
2019,03,19,03,22,3.90
2019,03,19,03,23,3.90
2019,03,19,03,24,3.90
2019,03,19,03,25,3.90
2019,03,19,03,26,3.90
2019,03,19,03,27,3.80
2019,03,19,03,28,3.80
2019,03,19,03,29,3.80
2019,03,19,03,30,3.80
2019,03,19,03,31,3.70
2019,03,19,03,32,3.70
2019,03,19,03,33,3.70
2019,03,19,03,34,3.70
2019,03,19,03,35,3.70
2019,03,19,03,36,3.70
2019,03,19,03,37,3.60
2019,03,19,03,38,3.60
2019,03,19,03,39,3.60
2019,03,19,03,40,3.60
2019,03,19,03,41,3.60
2019,03,19,03,42,3.60
2019,03,19,03,43,3.60
2019,03,19,03,44,3.60
2019,03,19,03,45,3.60
2019,03,19,03,46,3.60
2019,03,19,03,47,3.60
2019,03,19,03,48,3.60
2019,03,19,03,49,3.60
2019,03,19,03,50,3.60
2019,03,19,03,51,3.50
2019,03,19,03,52,3.50
2019,03,19,03,53,3.50
2019,03,19,03,54,3.50
2019,03,19,03,55,3.40
2019,03,19,03,56,3.40
2019,03,19,03,57,3.40
2019,03,19,03,58,3.40
2019,03,19,03,59,3.30
2019,03,19,04,00,3.30
2019,03,19,04,01,3.30
2019,03,19,04,02,3.30
2019,03,19,04,03,3.30
2019,03,19,04,04,3.30
2019,03,19,04,05,3.30
2019,03,19,04,06,3.30
2019,03,19,04,07,3.30
2019,03,19,04,08,3.40
2019,03,19,04,09,3.40
2019,03,19,04,10,3.40
2019,03,19,04,11,3.50
2019,03,19,04,12,3.60
2019,03,19,04,13,3.60
2019,03,19,04,14,3.70
2019,03,19,04,15,3.80
2019,03,19,04,16,3.80
2019,03,19,04,17,3.90
2019,03,19,04,18,3.90
2019,03,19,04,19,3.90
2019,03,19,04,20,3.90
2019,03,19,04,21,3.80
2019,03,19,04,22,3.80
2019,03,19,04,23,3.80
2019,03,19,04,24,3.70
2019,03,19,04,25,3.70
2019,03,19,04,26,3.70
2019,03,19,04,27,3.60
2019,03,19,04,28,3.60
2019,03,19,04,29,3.60
2019,03,19,04,30,3.60
2019,03,19,04,31,3.60
2019,03,19,04,32,3.60
2019,03,19,04,33,3.50
2019,03,19,04,34,3.50
2019,03,19,04,35,3.50
2019,03,19,04,36,3.50
2019,03,19,04,37,3.50
2019,03,19,04,38,3.50
2019,03,19,04,39,3.50
2019,03,19,04,40,3.50
2019,03,19,04,41,3.50
2019,03,19,04,42,3.40
2019,03,19,04,43,3.40
2019,03,19,04,44,3.40
2019,03,19,04,45,3.40
2019,03,19,04,46,3.40
2019,03,19,04,47,3.40
2019,03,19,04,48,3.40
2019,03,19,04,49,3.40
2019,03,19,04,50,3.40
2019,03,19,04,51,3.40
2019,03,19,04,52,3.40
2019,03,19,04,53,3.40
2019,03,19,04,54,3.40
2019,03,19,04,55,3.40
2019,03,19,04,56,3.30
2019,03,19,04,57,3.30
2019,03,19,04,58,3.30
2019,03,19,04,59,3.20
2019,03,19,05,00,3.20
2019,03,19,05,01,3.20
2019,03,19,05,02,3.20
2019,03,19,05,03,3.20
2019,03,19,05,04,3.20
2019,03,19,05,05,3.20
2019,03,19,05,06,3.20
2019,03,19,05,07,3.20
2019,03,19,05,08,3.20
2019,03,19,05,09,3.20
2019,03,19,05,10,3.10
2019,03,19,05,11,3.10
2019,03,19,05,12,3.10
2019,03,19,05,13,3.10
2019,03,19,05,14,3.10
2019,03,19,05,15,3.10
2019,03,19,05,16,3.10
2019,03,19,05,17,3.10
2019,03,19,05,18,3.00
2019,03,19,05,19,3.00
2019,03,19,05,20,2.90
2019,03,19,05,21,2.90
2019,03,19,05,22,2.90
2019,03,19,05,23,2.90
2019,03,19,05,24,2.90
2019,03,19,05,25,2.90
2019,03,19,05,26,2.90
2019,03,19,05,27,2.90
2019,03,19,05,28,2.90
2019,03,19,05,29,2.90
2019,03,19,05,30,2.90
2019,03,19,05,31,2.90
2019,03,19,05,32,2.90
2019,03,19,05,33,2.90
2019,03,19,05,34,2.90
2019,03,19,05,35,2.80
2019,03,19,05,36,2.80
2019,03,19,05,37,2.80
2019,03,19,05,38,2.80
2019,03,19,05,39,2.80
2019,03,19,05,40,2.90
2019,03,19,05,41,2.90
2019,03,19,05,42,2.90
2019,03,19,05,43,2.90
2019,03,19,05,44,3.00
2019,03,19,05,45,3.10
2019,03,19,05,46,3.20
2019,03,19,05,47,3.20
2019,03,19,05,48,3.30
2019,03,19,05,49,3.40
2019,03,19,05,50,3.40
2019,03,19,05,51,3.40
2019,03,19,05,52,3.40
2019,03,19,05,53,3.40
2019,03,19,05,54,3.40
2019,03,19,05,55,3.40
2019,03,19,05,56,3.50
2019,03,19,05,57,3.60
2019,03,19,05,58,3.60
2019,03,19,05,59,3.60
2019,03,19,06,00,3.50
2019,03,19,06,01,3.50
2019,03,19,06,02,3.40
2019,03,19,06,03,3.40
2019,03,19,06,04,3.40
2019,03,19,06,05,3.40
2019,03,19,06,06,3.40
2019,03,19,06,07,3.40
2019,03,19,06,08,3.40
2019,03,19,06,09,3.40
2019,03,19,06,10,3.40
2019,03,19,06,11,3.40
2019,03,19,06,12,3.40
2019,03,19,06,13,3.40
2019,03,19,06,14,3.40
2019,03,19,06,15,3.40
2019,03,19,06,16,3.50
2019,03,19,06,17,3.50
2019,03,19,06,18,3.50
2019,03,19,06,19,3.50
2019,03,19,06,20,3.50
2019,03,19,06,21,3.50
2019,03,19,06,22,3.50
2019,03,19,06,23,3.40
2019,03,19,06,24,3.40
2019,03,19,06,25,3.40
2019,03,19,06,26,3.40
2019,03,19,06,27,3.30
2019,03,19,06,28,3.30
2019,03,19,06,29,3.30
2019,03,19,06,30,3.30
2019,03,19,06,31,3.30
2019,03,19,06,32,3.20
2019,03,19,06,33,3.20
2019,03,19,06,34,3.20
2019,03,19,06,35,3.20
2019,03,19,06,36,3.20
2019,03,19,06,37,3.20
2019,03,19,06,38,3.20
2019,03,19,06,39,3.10
2019,03,19,06,40,3.10
2019,03,19,06,41,3.10
2019,03,19,06,42,3.00
2019,03,19,06,43,3.00
2019,03,19,06,44,3.00
2019,03,19,06,45,3.00
2019,03,19,06,46,3.00
2019,03,19,06,47,3.00
2019,03,19,06,48,3.00
2019,03,19,06,49,3.00
2019,03,19,06,50,2.90
2019,03,19,06,51,2.90
2019,03,19,06,52,2.90
2019,03,19,06,53,2.80
2019,03,19,06,54,2.80
2019,03,19,06,55,2.80
2019,03,19,06,56,2.70
2019,03,19,06,57,2.70
2019,03,19,06,58,2.70
2019,03,19,06,59,2.70
2019,03,19,07,00,2.70
2019,03,19,07,01,2.70
2019,03,19,07,02,2.60
2019,03,19,07,03,2.60
2019,03,19,07,04,2.60
2019,03,19,07,05,2.60
2019,03,19,07,06,2.60
2019,03,19,07,07,2.50
2019,03,19,07,08,2.50
2019,03,19,07,09,2.50
2019,03,19,07,10,2.50
2019,03,19,07,11,2.40
2019,03,19,07,12,2.40
2019,03,19,07,13,2.40
2019,03,19,07,14,2.30
2019,03,19,07,15,2.30
2019,03,19,07,16,2.30
2019,03,19,07,17,2.30
2019,03,19,07,18,2.30
2019,03,19,07,19,2.20
2019,03,19,07,20,2.20
2019,03,19,07,21,2.20
2019,03,19,07,22,2.20
2019,03,19,07,23,2.30
2019,03,19,07,24,2.30
2019,03,19,07,25,2.30
2019,03,19,07,26,2.30
2019,03,19,07,27,2.30
2019,03,19,07,28,2.30
2019,03,19,07,29,2.30
2019,03,19,07,30,2.30
2019,03,19,07,31,2.30
2019,03,19,07,32,2.30
2019,03,19,07,33,2.30
2019,03,19,07,34,2.30
2019,03,19,07,35,2.30
2019,03,19,07,36,2.30
2019,03,19,07,37,2.30
2019,03,19,07,38,2.30
2019,03,19,07,39,2.40
2019,03,19,07,40,2.40
2019,03,19,07,41,2.50
2019,03,19,07,42,2.60
2019,03,19,07,43,2.60
2019,03,19,07,44,2.60
2019,03,19,07,45,2.60
2019,03,19,07,46,2.60
2019,03,19,07,47,2.60
2019,03,19,07,48,2.60
2019,03,19,07,49,2.60
2019,03,19,07,50,2.60
2019,03,19,07,51,2.60
2019,03,19,07,52,2.60
2019,03,19,07,53,2.60
2019,03,19,07,54,2.60
2019,03,19,07,55,2.60
2019,03,19,07,56,2.70
2019,03,19,07,57,2.80
2019,03,19,07,58,2.80
2019,03,19,07,59,2.90
2019,03,19,08,00,3.00
2019,03,19,08,01,3.10
2019,03,19,08,02,3.10
2019,03,19,08,03,3.20
2019,03,19,08,04,3.20
2019,03,19,08,05,3.20
2019,03,19,08,06,3.20
2019,03,19,08,07,3.20
2019,03,19,08,08,3.30
2019,03,19,08,09,3.30
2019,03,19,08,10,3.40
2019,03,19,08,11,3.40
2019,03,19,08,12,3.40
2019,03,19,08,13,3.40
2019,03,19,08,14,3.50
2019,03,19,08,15,3.50
2019,03,19,08,16,3.60
2019,03,19,08,17,3.60
2019,03,19,08,18,3.60
2019,03,19,08,19,3.60
2019,03,19,08,20,3.60
2019,03,19,08,21,3.60
2019,03,19,08,22,3.70
2019,03,19,08,23,3.70
2019,03,19,08,24,3.70
2019,03,19,08,25,3.70
2019,03,19,08,26,3.70
2019,03,19,08,27,3.80
2019,03,19,08,28,3.80
2019,03,19,08,29,3.90
2019,03,19,08,30,3.90
2019,03,19,08,31,4.00
2019,03,19,08,32,4.10
2019,03,19,08,33,4.20
2019,03,19,08,34,4.30
2019,03,19,08,35,4.30
2019,03,19,08,36,4.40
2019,03,19,08,37,4.40
2019,03,19,08,38,4.50
2019,03,19,08,39,4.60
2019,03,19,08,40,4.60
2019,03,19,08,41,4.70
2019,03,19,08,42,4.80
2019,03,19,08,43,4.90
2019,03,19,08,44,5.00
2019,03,19,08,45,5.10
2019,03,19,08,46,5.20
2019,03,19,08,47,5.30
2019,03,19,08,48,5.50
2019,03,19,08,49,5.50
2019,03,19,08,50,5.60
2019,03,19,08,51,5.70
2019,03,19,08,52,5.80
2019,03,19,08,53,5.90
2019,03,19,08,54,6.00
2019,03,19,08,55,6.10
2019,03,19,08,56,6.20
2019,03,19,08,57,6.30
2019,03,19,08,58,6.40
2019,03,19,08,59,6.40
2019,03,19,09,00,6.50
2019,03,19,09,01,6.60
2019,03,19,09,02,6.70
2019,03,19,09,03,6.80
2019,03,19,09,04,6.90
2019,03,19,09,05,7.00
2019,03,19,09,06,7.10
2019,03,19,09,07,7.20
2019,03,19,09,08,7.30
2019,03,19,09,09,7.30
2019,03,19,09,10,7.40
2019,03,19,09,11,7.50
2019,03,19,09,12,7.60
2019,03,19,09,13,7.70
2019,03,19,09,14,7.70
2019,03,19,09,15,7.80
2019,03,19,09,16,7.80
2019,03,19,09,17,7.90
2019,03,19,09,18,8.00
2019,03,19,09,19,8.00
2019,03,19,09,20,8.10
2019,03,19,09,21,8.20
2019,03,19,09,22,8.20
2019,03,19,09,23,8.30
2019,03,19,09,24,8.30
2019,03,19,09,25,8.40
2019,03,19,09,26,8.40
2019,03,19,09,27,8.50
2019,03,19,09,28,8.60
2019,03,19,09,29,8.70
2019,03,19,09,30,8.70
2019,03,19,09,31,8.80
2019,03,19,09,32,8.90
2019,03,19,09,33,8.90
2019,03,19,09,34,9.00
2019,03,19,09,35,9.10
2019,03,19,09,36,9.10
2019,03,19,09,37,9.20
2019,03,19,09,38,9.20
2019,03,19,09,39,9.30
2019,03,19,09,40,9.30
2019,03,19,09,41,9.40
2019,03,19,09,42,9.40
2019,03,19,09,43,9.50
2019,03,19,09,44,9.50
2019,03,19,09,45,9.60
2019,03,19,09,46,9.60
2019,03,19,09,47,9.60
2019,03,19,09,48,9.70
2019,03,19,09,49,9.70
2019,03,19,09,50,9.70
2019,03,19,09,51,9.80
2019,03,19,09,52,9.80
2019,03,19,09,53,9.80
2019,03,19,09,54,9.80
2019,03,19,09,55,9.90
2019,03,19,09,56,9.90
2019,03,19,09,57,10.00
2019,03,19,09,58,10.00
2019,03,19,09,59,10.10
2019,03,19,10,00,10.10
2019,03,19,10,01,10.20
2019,03,19,10,02,10.20
2019,03,19,10,03,10.30
2019,03,19,10,04,10.40
2019,03,19,10,05,10.40
2019,03,19,10,06,10.50
2019,03,19,10,07,10.60
2019,03,19,10,08,10.60
2019,03,19,10,09,10.70
2019,03,19,10,10,10.80
2019,03,19,10,11,10.90
2019,03,19,10,12,11.00
2019,03,19,10,13,11.10
2019,03,19,10,14,11.20
2019,03,19,10,15,11.30
2019,03,19,10,16,11.40
2019,03,19,10,17,11.60
2019,03,19,10,18,11.80
2019,03,19,10,19,11.90
2019,03,19,10,20,12.10
2019,03,19,10,21,12.30
2019,03,19,10,22,12.50
2019,03,19,10,23,12.60
2019,03,19,10,24,12.80
2019,03,19,10,25,13.00
2019,03,19,10,26,13.10
2019,03,19,10,27,13.30
2019,03,19,10,28,13.40
2019,03,19,10,29,13.50
2019,03,19,10,30,13.60
2019,03,19,10,31,13.70
2019,03,19,10,32,13.80
2019,03,19,10,33,13.90
2019,03,19,10,34,14.00
2019,03,19,10,35,14.10
2019,03,19,10,36,14.20
2019,03,19,10,37,14.30
2019,03,19,10,38,14.30
2019,03,19,10,39,14.40
2019,03,19,10,40,14.40
2019,03,19,10,41,14.50
2019,03,19,10,42,14.50
2019,03,19,10,43,14.60
2019,03,19,10,44,14.60
2019,03,19,10,45,14.70
2019,03,19,10,46,14.70
2019,03,19,10,47,14.70
2019,03,19,10,48,14.80
2019,03,19,10,49,14.80
2019,03,19,10,50,14.80
2019,03,19,10,51,14.80
2019,03,19,10,52,14.80
2019,03,19,10,53,14.80
2019,03,19,10,54,14.80
2019,03,19,10,55,14.80
2019,03,19,10,56,14.80
2019,03,19,10,57,14.80
2019,03,19,10,58,14.90
2019,03,19,10,59,14.90
2019,03,19,11,00,14.90
2019,03,19,11,01,15.00
2019,03,19,11,02,15.00
2019,03,19,11,03,15.00
2019,03,19,11,04,15.00
2019,03,19,11,05,15.10
2019,03,19,11,06,15.10
2019,03,19,11,07,15.10
2019,03,19,11,08,15.20
2019,03,19,11,09,15.20
2019,03,19,11,10,15.20
2019,03,19,11,11,15.30
2019,03,19,11,12,15.40
2019,03,19,11,13,15.40
2019,03,19,11,14,15.40
2019,03,19,11,15,15.50
2019,03,19,11,16,15.60
2019,03,19,11,17,15.60
2019,03,19,11,18,15.70
2019,03,19,11,19,15.70
2019,03,19,11,20,15.80
2019,03,19,11,21,15.80
2019,03,19,11,22,15.80
2019,03,19,11,23,15.90
2019,03,19,11,24,15.90
2019,03,19,11,25,15.90
2019,03,19,11,26,15.90
2019,03,19,11,27,15.90
2019,03,19,11,28,16.00
2019,03,19,11,29,16.00
2019,03,19,11,30,16.00
2019,03,19,11,31,16.10
2019,03,19,11,32,16.00
2019,03,19,11,33,16.00
2019,03,19,11,34,16.00
2019,03,19,11,35,16.00
2019,03,19,11,36,15.90
2019,03,19,11,37,15.90
2019,03,19,11,38,15.90
2019,03,19,11,39,15.90
2019,03,19,11,40,16.00
2019,03,19,11,41,16.00
2019,03,19,11,42,16.10
2019,03,19,11,43,16.10
2019,03,19,11,44,16.10
2019,03,19,11,45,16.20
2019,03,19,11,46,16.20
2019,03,19,11,47,16.30
2019,03,19,11,48,16.30
2019,03,19,11,49,16.30
2019,03,19,11,50,16.20
2019,03,19,11,51,16.20
2019,03,19,11,52,16.10
2019,03,19,11,53,16.10
2019,03,19,11,54,16.10
2019,03,19,11,55,16.10
2019,03,19,11,56,16.10
2019,03,19,11,57,16.10
2019,03,19,11,58,16.10
2019,03,19,11,59,16.10
2019,03,19,12,00,16.20
2019,03,19,12,01,16.20
2019,03,19,12,02,16.30
2019,03,19,12,03,16.30
2019,03,19,12,04,16.40
2019,03,19,12,05,16.50
2019,03,19,12,06,16.50
2019,03,19,12,07,16.60
2019,03,19,12,08,16.60
2019,03,19,12,09,16.70
2019,03,19,12,10,16.80
2019,03,19,12,11,16.80
2019,03,19,12,12,16.80
2019,03,19,12,13,16.90
2019,03,19,12,14,16.90
2019,03,19,12,15,17.00
2019,03,19,12,16,17.10
2019,03,19,12,17,17.10
2019,03,19,12,18,17.10
2019,03,19,12,19,17.10
2019,03,19,12,20,17.00
2019,03,19,12,21,17.00
2019,03,19,12,22,17.00
2019,03,19,12,23,16.90
2019,03,19,12,24,16.90
2019,03,19,12,25,17.00
2019,03,19,12,26,17.00
2019,03,19,12,27,17.00
2019,03,19,12,28,17.00
2019,03,19,12,29,17.00
2019,03,19,12,30,17.00
2019,03,19,12,31,16.90
2019,03,19,12,32,16.90
2019,03,19,12,33,16.90
2019,03,19,12,34,16.90
2019,03,19,12,35,16.80
2019,03,19,12,36,16.80
2019,03,19,12,37,16.90
2019,03,19,12,38,16.90
2019,03,19,12,39,16.80
2019,03,19,12,40,16.80
2019,03,19,12,41,16.80
2019,03,19,12,42,16.80
2019,03,19,12,43,16.70
2019,03,19,12,44,16.70
2019,03,19,12,45,16.70
2019,03,19,12,46,16.70
2019,03,19,12,47,16.70
2019,03,19,12,48,16.80
2019,03,19,12,49,16.80
2019,03,19,12,50,16.80
2019,03,19,12,51,16.80
2019,03,19,12,52,16.80
2019,03,19,12,53,16.90
2019,03,19,12,54,16.90
2019,03,19,12,55,16.90
2019,03,19,12,56,16.90
2019,03,19,12,57,16.90
2019,03,19,12,58,16.90
2019,03,19,12,59,16.90
2019,03,19,13,00,16.90
2019,03,19,13,01,16.90
2019,03,19,13,02,16.90
2019,03,19,13,03,16.90
2019,03,19,13,04,16.90
2019,03,19,13,05,16.90
2019,03,19,13,06,16.90
2019,03,19,13,07,16.90
2019,03,19,13,08,16.90
2019,03,19,13,09,16.90
2019,03,19,13,10,16.90
2019,03,19,13,11,16.90
2019,03,19,13,12,16.90
2019,03,19,13,13,17.00
2019,03,19,13,14,17.00
2019,03,19,13,15,17.00
2019,03,19,13,16,17.10
2019,03,19,13,17,17.10
2019,03,19,13,18,17.10
2019,03,19,13,19,17.10
2019,03,19,13,20,17.20
2019,03,19,13,21,17.20
2019,03,19,13,22,17.30
2019,03,19,13,23,17.30
2019,03,19,13,24,17.30
2019,03,19,13,25,17.40
2019,03,19,13,26,17.40
2019,03,19,13,27,17.50
2019,03,19,13,28,17.50
2019,03,19,13,29,17.50
2019,03,19,13,30,17.50
2019,03,19,13,31,17.60
2019,03,19,13,32,17.60
2019,03,19,13,33,17.60
2019,03,19,13,34,17.70
2019,03,19,13,35,17.70
2019,03,19,13,36,17.70
2019,03,19,13,37,17.70
2019,03,19,13,38,17.80
2019,03,19,13,39,17.80
2019,03,19,13,40,17.90
2019,03,19,13,41,18.00
2019,03,19,13,42,18.00
2019,03,19,13,43,18.10
2019,03,19,13,44,18.10
2019,03,19,13,45,18.20
2019,03,19,13,46,18.20
2019,03,19,13,47,18.20
2019,03,19,13,48,18.30
2019,03,19,13,49,18.30
2019,03,19,13,50,18.30
2019,03,19,13,51,18.30
2019,03,19,13,52,18.30
2019,03,19,13,53,18.30
2019,03,19,13,54,18.30
2019,03,19,13,55,18.40
2019,03,19,13,56,18.40
2019,03,19,13,57,18.40
2019,03,19,13,58,18.40
2019,03,19,13,59,18.40
2019,03,19,14,00,18.40
2019,03,19,14,01,18.40
2019,03,19,14,02,18.40
2019,03,19,14,03,18.40
2019,03,19,14,04,18.50
2019,03,19,14,05,18.50
2019,03,19,14,06,18.50
2019,03,19,14,07,18.50
2019,03,19,14,08,18.50
2019,03,19,14,09,18.40
2019,03,19,14,10,18.30
2019,03,19,14,11,18.20
2019,03,19,14,12,18.20
2019,03,19,14,13,18.20
2019,03,19,14,14,18.20
2019,03,19,14,15,18.20
2019,03,19,14,16,18.20
2019,03,19,14,17,18.30
2019,03,19,14,18,18.30
2019,03,19,14,19,18.40
2019,03,19,14,20,18.40
2019,03,19,14,21,18.50
2019,03,19,14,22,18.60
2019,03,19,14,23,18.60
2019,03,19,14,24,18.60
2019,03,19,14,25,18.60
2019,03,19,14,26,18.60
2019,03,19,14,27,18.60
2019,03,19,14,28,18.60
2019,03,19,14,29,18.50
2019,03,19,14,30,18.50
2019,03,19,14,31,18.50
2019,03,19,14,32,18.50
2019,03,19,14,33,18.50
2019,03,19,14,34,18.40
2019,03,19,14,35,18.50
2019,03,19,14,36,18.40
2019,03,19,14,37,18.40
2019,03,19,14,38,18.40
2019,03,19,14,39,18.40
2019,03,19,14,40,18.40
2019,03,19,14,41,18.50
2019,03,19,14,42,18.50
2019,03,19,14,43,18.60
2019,03,19,14,44,18.60
2019,03,19,14,45,18.50
2019,03,19,14,46,18.50
2019,03,19,14,47,18.40
2019,03,19,14,48,18.40
2019,03,19,14,49,18.30
2019,03,19,14,50,18.30
2019,03,19,14,51,18.30
2019,03,19,14,52,18.30
2019,03,19,14,53,18.30
2019,03,19,14,54,18.30
2019,03,19,14,55,18.40
2019,03,19,14,56,18.40
2019,03,19,14,57,18.40
2019,03,19,14,58,18.50
2019,03,19,14,59,18.60
2019,03,19,15,00,18.60
2019,03,19,15,01,18.70
2019,03,19,15,02,18.80
2019,03,19,15,03,18.90
2019,03,19,15,04,19.00
2019,03,19,15,05,19.10
2019,03,19,15,06,19.20
2019,03,19,15,07,19.30
2019,03,19,15,08,19.40
2019,03,19,15,09,19.50
2019,03,19,15,10,19.50
2019,03,19,15,11,19.60
2019,03,19,15,12,19.70
2019,03,19,15,13,19.70
2019,03,19,15,14,19.80
2019,03,19,15,15,19.80
2019,03,19,15,16,19.80
2019,03,19,15,17,19.80
2019,03,19,15,18,19.80
2019,03,19,15,19,19.80
2019,03,19,15,20,19.70
2019,03,19,15,21,19.70
2019,03,19,15,22,19.70
2019,03,19,15,23,19.60
2019,03,19,15,24,19.50
2019,03,19,15,25,19.40
2019,03,19,15,26,19.30
2019,03,19,15,27,19.20
2019,03,19,15,28,19.20
2019,03,19,15,29,19.20
2019,03,19,15,30,19.20
2019,03,19,15,31,19.20
2019,03,19,15,32,19.30
2019,03,19,15,33,19.30
2019,03,19,15,34,19.30
2019,03,19,15,35,19.30
2019,03,19,15,36,19.30
2019,03,19,15,37,19.30
2019,03,19,15,38,19.30
2019,03,19,15,39,19.30
2019,03,19,15,40,19.30
2019,03,19,15,41,19.40
2019,03,19,15,42,19.40
2019,03,19,15,43,19.40
2019,03,19,15,44,19.40
2019,03,19,15,45,19.40
2019,03,19,15,46,19.30
2019,03,19,15,47,19.30
2019,03,19,15,48,19.20
2019,03,19,15,49,19.10
2019,03,19,15,50,19.00
2019,03,19,15,51,18.90
2019,03,19,15,52,18.80
2019,03,19,15,53,18.80
2019,03,19,15,54,18.70
2019,03,19,15,55,18.70
2019,03,19,15,56,18.70
2019,03,19,15,57,18.70
2019,03,19,15,58,18.70
2019,03,19,15,59,18.60
2019,03,19,16,00,18.60
2019,03,19,16,01,18.60
2019,03,19,16,02,18.60
2019,03,19,16,03,18.60
2019,03,19,16,04,18.60
2019,03,19,16,05,18.60
2019,03,19,16,06,18.60
2019,03,19,16,07,18.60
2019,03,19,16,08,18.60
2019,03,19,16,09,18.60
2019,03,19,16,10,18.70
2019,03,19,16,11,18.70
2019,03,19,16,12,18.70
2019,03,19,16,13,18.70
2019,03,19,16,14,18.70
2019,03,19,16,15,18.70
2019,03,19,16,16,18.70
2019,03,19,16,17,18.70
2019,03,19,16,18,18.70
2019,03,19,16,19,18.80
2019,03,19,16,20,18.80
2019,03,19,16,21,18.80
2019,03,19,16,22,18.80
2019,03,19,16,23,18.80
2019,03,19,16,24,18.80
2019,03,19,16,25,18.80
2019,03,19,16,26,18.90
2019,03,19,16,27,18.90
2019,03,19,16,28,18.90
2019,03,19,16,29,18.90
2019,03,19,16,30,19.00
2019,03,19,16,31,19.00
2019,03,19,16,32,19.10
2019,03,19,16,33,19.10
2019,03,19,16,34,19.20
2019,03,19,16,35,19.30
2019,03,19,16,36,19.40
2019,03,19,16,37,19.40
2019,03,19,16,38,19.50
2019,03,19,16,39,19.60
2019,03,19,16,40,19.60
2019,03,19,16,41,19.70
2019,03,19,16,42,19.70
2019,03,19,16,43,19.70
2019,03,19,16,44,19.70
2019,03,19,16,45,19.70
2019,03,19,16,46,19.70
2019,03,19,16,47,19.60
2019,03,19,16,48,19.60
2019,03,19,16,49,19.50
2019,03,19,16,50,19.40
2019,03,19,16,51,19.40
2019,03,19,16,52,19.40
2019,03,19,16,53,19.30
2019,03,19,16,54,19.30
2019,03,19,16,55,19.40
2019,03,19,16,56,19.40
2019,03,19,16,57,19.40
2019,03,19,16,58,19.40
2019,03,19,16,59,19.50
2019,03,19,17,00,19.50
2019,03,19,17,01,19.60
2019,03,19,17,02,19.60
2019,03,19,17,03,19.60
2019,03,19,17,04,19.60
2019,03,19,17,05,19.60
2019,03,19,17,06,19.60
2019,03,19,17,07,19.50
2019,03,19,17,08,19.50
2019,03,19,17,09,19.40
2019,03,19,17,10,19.40
2019,03,19,17,11,19.40
2019,03,19,17,12,19.40
2019,03,19,17,13,19.40
2019,03,19,17,14,19.40
2019,03,19,17,15,19.40
2019,03,19,17,16,19.30
2019,03,19,17,17,19.40
2019,03,19,17,18,19.40
2019,03,19,17,19,19.40
2019,03,19,17,20,19.40
2019,03,19,17,21,19.40
2019,03,19,17,22,19.40
2019,03,19,17,23,19.40
2019,03,19,17,24,19.30
2019,03,19,17,25,19.40
2019,03,19,17,26,19.30
2019,03,19,17,27,19.30
2019,03,19,17,28,19.20
2019,03,19,17,29,19.20
2019,03,19,17,30,19.10
2019,03,19,17,31,19.10
2019,03,19,17,32,19.10
2019,03,19,17,33,19.10
2019,03,19,17,34,19.00
2019,03,19,17,35,19.00
2019,03,19,17,36,18.90
2019,03,19,17,37,18.90
2019,03,19,17,38,18.90
2019,03,19,17,39,18.90
2019,03,19,17,40,18.90
2019,03,19,17,41,18.80
2019,03,19,17,42,18.80
2019,03,19,17,43,18.80
2019,03,19,17,44,18.80
2019,03,19,17,45,18.80